{"data":{"norad_id":67756,"intl_designator":"2026-028A","name":"ELEKTRO-L 5","alt_names":[],"object_type":"PAYLOAD","status":"ACTIVE","operator":null,"country":"CIS","launch_date":"2026-02-12","launch_site_code":"TYMSC","launch_vehicle":null,"mission":null,"orbit_class":"UNKNOWN","rcs_meters":null,"size_class":null,"mass_kg":null,"dimensions":null,"purposes":["comms"],"wikipedia_slug":null,"has_3d_model":false,"image_url":null,"decayed_at":null,"tle_current":{"epoch":"2026-05-25T02:44:56.686272Z","epoch_age_seconds":59032,"freshness":"FRESH","line1":"1 67756U 26028A   26145.11454498 -.00000100  00000+0  00000+0 0  9993","line2":"2 67756   0.2968 303.9150 0001430 182.4372 233.6584  1.00271356  1023","mean_motion":1.00271356,"eccentricity":0.000143,"inclination_deg":0.2968,"raan_deg":303.915,"arg_perigee_deg":182.4372,"mean_anomaly_deg":233.6584,"bstar":0,"rev_number":102,"period_min":1436.1030482125,"perigee_km":35780.685652024,"apogee_km":35792.744799761,"semimajor_km":42164.852225893,"source":"CELESTRAK","updated_at":"2026-05-25T13:38:14.190042Z"}}}